Home > Weather > Labrador City > Past weeks

Flag for Canada Past Weather in Labrador City, Newfoundland and Labrador, Canada — Yesterday and Last 2 Weeks

Now
70 °F

Partly sunny.


Feels Like: 70 °F
Forecast: 52 / 64 °F
Wind: 8 mph from West

Location: Wabush Lake

Current Time: Jul 24, 2016 at 3:33:44 PM

Latest Report: Jul 24, 2016 at 3:00 PM


Visibility: 15 mi

Pressure: 29.90 "Hg (28.02 "Hg at 558m altitude)

Humidity: 57%

Dew Point: 54 °F

Location of Labrador CityLocation

Past Weather in Labrador City — Graph

°F

Labrador City Temperature Yesterday

Maximum temperature yesterday: 73 °F (at 3:00 PM)
Minimum temperature yesterday: 54 °F (at 5:52 AM)
Average temperature yesterday: 62 °F

High & Low Weather Summary for the Past Weeks

 TemperatureHumidityPressure
High79 °F (Jul 14, 1:00 PM)100% (Jul 10, 3:00 AM)30.13 "Hg (Jul 10, 3:00 AM)
Low45 °F (Jul 10, 2:49 AM)31% (Jul 9, 4:00 PM)29.32 "Hg (Jul 15, 5:00 AM)
Average60 °F77%29.78 "Hg
* Reported Jul 9 2:00 PM — Jul 24 2:00 PM, Labrador City, Weather by CustomWeather, © 2016

Note: Actual official high and low records may vary slightly from our data, if they occured in-between our weather recording intervals... More about our weather records

Advertising

Labrador City Weather History for the Previous 24 Hours

Scroll right to see more
 ConditionsComfort  
Time TempWeatherWind HumidityBarometerVisibility
2:00 PM
Sun, Jul 24
68 °FPartly sunny.6 mph64%29.90 "Hg15 mi
1:00 PM64 °FPartly sunny.9 mph73%29.90 "Hg15 mi
12:00 PM64 °FScattered showers. Partly sunny.13 mph68%29.91 "Hg15 mi
11:00 AM64 °FBroken clouds.9 mph73%29.90 "Hg15 mi
10:00 AM63 °FScattered clouds.8 mph83%29.89 "Hg15 mi
9:00 AM61 °FScattered clouds.8 mph83%29.88 "Hg15 mi
8:00 AM59 °FPartly sunny.7 mph88%29.87 "Hg15 mi
7:00 AM55 °FPartly cloudy.3 mph94%29.85 "Hg15 mi
6:00 AM55 °FThunderstorms. Passing clouds.14 mph94%29.85 "Hg5 mi
5:51 AM55 °FRain. Fog.13 mph94%29.84 "Hg3 mi
5:00 AM59 °FMostly cloudy.8 mph88%29.82 "Hg9 mi
4:00 AM61 °FMostly cloudy.7 mph88%29.81 "Hg9 mi
3:00 AM59 °FOvercast.5 mph94%29.79 "Hg9 mi
2:00 AM61 °FMostly cloudy.3 mph94%29.78 "Hg9 mi
1:00 AM61 °FPassing clouds.7 mph88%29.78 "Hg9 mi
12:00 AM59 °FPassing clouds.3 mph94%29.77 "Hg9 mi
11:00 PM
Sat, Jul 23
61 °FSunny.3 mph94%29.77 "Hg9 mi
10:00 PM63 °FScattered showers. Partly sunny.No wind94%29.76 "Hg15 mi
9:00 PM64 °FPartly sunny.No wind88%29.75 "Hg15 mi
8:00 PM64 °FPartly sunny.5 mph88%29.73 "Hg15 mi
7:00 PM64 °FPartly sunny.5 mph88%29.72 "Hg15 mi
6:00 PM64 °FSprinkles. Mostly cloudy.12 mph88%29.72 "Hg10 mi
5:00 PM72 °FPartly sunny.7 mph65%29.68 "Hg15 mi
4:00 PM68 °FBroken clouds.5 mph78%29.67 "Hg15 mi
3:00 PM73 °FScattered showers. Broken clouds.14 mph61%29.67 "Hg15 mi
Weather by CustomWeather, © 2016

See weather overviewHow to use our weather pages